Regional Weather Roundup
Issued by NWS

Home | Current Version | Previous Version | Text Only | Print | Product List | Glossary On
Versions: 1 2 3 4 5 6 7 8 9 10 11 12 13 14 15 16 17 18 19 20 21 22 23 24 25 26 27 28 29 30 31 32 33 34 35 36 37 38 39 40 41 42 43 44 45 46 47 48 49 50
000
ASUS45 KBOI 010810
RWRID
WEATHER ROUNDUP FOR IDAHO
NATIONAL WEATHER SERVICE BOISE ID
100 AM MST SUN FEB 01 2015

NOTE: "FAIR" INDICATES FEW OR NO CLOUDS BELOW 12000 FEET
WITH NO SIGNIFICANT WEATHER AND/OR OBSTRUCTIONS TO VISIBILITY

IDZ012-014-010900-
SOUTHWEST IDAHO


CITY           SKY/WX    TMP DP  RH WIND       PRES   REMARKS
BOISE          PTCLDY    32  25  75 S5        30.20R WCI  27
CALDWELL       PTCLDY    30  25  80 CALM      30.21S
MOUNTAIN HOME  CLEAR     29  26  90 E7        30.20S WCI  22
$$

IDZ016-017-010900-
SOUTHCENTRAL IDAHO


CITY           SKY/WX    TMP DP  RH WIND       PRES   REMARKS
BURLEY         PTCLDY    25  22  88 CALM      30.17F
JEROME         CLEAR     30  27  88 N5        30.19S WCI  25
TWIN FALLS     CLEAR     36  27  69 S13       30.18S WCI  27
$$

IDZ019>023-010900-
SOUTHEAST IDAHO


CITY           SKY/WX    TMP DP  RH WIND       PRES   REMARKS
IDAHO FALLS    CLOUDY    30  27  86 CALM      30.19R
POCATELLO      CLOUDY    31  30  96 W5        30.19F WCI  26
REXBURG        CLOUDY    27  25  92 SW5       30.17S WCI  22
$$

IDZ006-010-011-018-031-032-010900-
CENTRAL IDAHO MOUNTAINS


CITY           SKY/WX    TMP DP  RH WIND       PRES   REMARKS
MCCALL         PTCLDY    20  14  77 CALM      30.16F
HAILEY         PTCLDY    21  18  86 NW5       30.16S WCI  15
STANLEY          N/A      7   0  73 E5        30.19R WCI  -2
SALMON         CLOUDY    23  19  86 CALM      30.25R
CHALLIS        PTCLDY    19  16  88 CALM      30.19S
$$

IDZ002-004-006-007-026-010900-
NORTHERN IDAHO


CITY           SKY/WX    TMP DP  RH WIND       PRES   REMARKS
LEWISTON       CLOUDY    34  29  82 E5        30.28F WCI  30
LOWELL           N/A     30  28  92 CALM      30.33F
COEUR D`ALENE  MOCLDY    28  25  86 NE6       30.25F WCI  22
MULLAN PASS    CLOUDY    22  17  81 VRB3      30.12F
$$


USA.gov is the U.S. government's official web portal to all federal, state and local government web resources and services.